sat.trackr.live / text

‹ back to catalog

STARLINK-36037

NORAD 66613 · 2025-270AB

PAYLOAD ACTIVE UNKNOWN

§ Identity

Operator
Country
US
Launch date
2025-11-22
Launch site
AFETR
Launch vehicle
Mass (kg)
RCS (m²)

Purposes: comms

External: N2YO · Heavens-Above · Gunter

§ Orbital elements

Epoch: 2026-09-20T15:51:16.772256Z

Period
94.27 min
Inclination
42.9995°
Eccentricity
0.0001243
Mean motion
15.27606995 rev/d
Perigee alt
482.1 km
Apogee alt
483.8 km
Semi-major
6,861.1 km
B*
4.3457e-4
RAAN
35.1290°
Arg perigee
263.1909°
Mean anomaly
96.8801°
Rev number
4,752

§ Raw data

STARLINK-360371 66613U 25270AB  26263.66061079  .00011725  00000+0  43457-3 0  99932 66613  42.9995  35.1290 0001243 263.1909  96.8801 15.27606995 47522

JSON: /api/v1/satellites/66613 · /tle

For live sub-satellite position, see the globe view (requires WebGL).

§ Visibility from observer

Set your observer location to see the next 7 days of passes ≥ 10°. The values pass through the URL so the page stays shareable.

No JS? Fill the form by hand. The geolocation button needs JavaScript.